Theta_e
343 345 347 346 346 350 350 350 351 351 350 350 350 350 351 351 351 351 350 350 349 349 348 348 348 348 348 347 346 346 346 345 345 343 343 343 345 344 344 345 345 346 347 348 350 350 351 351 350 349 350 350 350 349 347 347 347 350 351 351 352 352 352 352 352 352 352 352 352 353 353 353 352 352 352 352 353 352 351 350 350 350 351 351 351
343 345 346 348 344 349 350 350 351 351 351 351 351 351 350 351 351 351 350 350 349 349 349 348 348 348 347 346 345 345 345 345 344 344 344 343 344 344 344 344 344 345 347 348 349 349 351 351 350 349 350 350 348 345 347 348 349 349 350 350 352 353 352 352 351 351 350 350 350 351 351 352 352 352 352 352 352 352 350 350 349 349 349 351 351
348 345 346 349 344 346 349 350 351 351 351 351 351 351 351 351 351 350 350 350 350 349 349 349 348 348 347 346 344 344 344 344 344 343 343 343 343 343 344 344 344 345 346 348 348 349 351 351 351 349 351 348 345 347 346 347 347 347 349 350 352 352 352 352 351 350 350 350 350 349 348 349 351 352 351 352 352 351 350 350 350 348 350 351 351
340 343 344 347 341 344 348 350 350 351 351 350 351 350 351 351 351 351 350 350 349 349 349 348 348 348 346 344 343 343 343 343 343 344 344 343 343 343 343 344 344 345 346 347 349 349 349 351 351 349 350 345 346 347 347 348 348 348 349 350 351 351 351 351 351 350 349 349 348 347 348 350 350 352 352 351 351 351 348 349 348 350 351 350 350
338 342 344 347 347 343 346 350 351 351 351 351 351 351 351 350 350 350 350 349 348 349 348 348 348 347 345 344 342 342 343 343 343 345 344 344 344 344 343 343 343 345 346 347 348 348 349 350 350 349 350 347 345 346 346 346 347 347 350 350 351 351 351 351 350 349 348 347 346 345 348 348 349 350 352 351 351 349 348 349 350 351 350 349 350
337 339 343 345 347 349 344 348 351 350 350 350 350 351 350 350 350 350 350 348 348 348 347 347 347 347 345 343 342 342 343 344 344 344 346 345 345 344 344 345 345 344 347 347 348 348 349 350 349 349 351 346 346 346 346 345 346 346 349 349 350 352 351 350 349 348 346 345 344 345 346 346 346 349 351 351 350 348 349 351 350 350 350 349 349
337 339 342 344 347 347 342 346 350 351 350 350 351 350 350 350 349 349 349 349 348 348 347 347 347 345 344 343 343 342 343 344 344 345 346 346 346 346 346 345 346 346 346 348 348 348 349 350 349 350 348 346 346 346 345 345 345 349 349 348 351 351 350 349 347 346 344 345 346 345 344 345 347 348 349 351 351 350 350 350 350 349 349 348 348
336 339 342 344 346 344 339 345 348 349 350 350 350 350 350 350 350 349 349 349 348 348 347 346 346 345 344 344 342 343 343 343 344 345 345 346 346 346 347 347 347 347 347 348 349 349 349 349 350 352 348 345 346 346 345 345 345 348 348 350 350 349 349 347 345 345 344 342 345 344 344 346 347 347 349 350 351 351 349 350 349 348 349 347 345
334 335 339 342 345 341 339 343 345 346 347 349 350 350 350 349 350 350 350 350 348 347 346 345 345 345 344 344 344 343 344 346 346 345 345 345 345 345 347 347 347 347 348 348 348 349 350 348 351 353 350 346 345 345 344 344 345 346 350 349 349 347 346 345 343 341 344 344 344 344 345 344 346 346 347 348 350 349 348 347 348 347 347 346 344
333 335 336 340 343 338 337 339 343 345 347 347 348 349 349 348 348 348 349 349 349 348 346 345 344 344 344 344 344 347 346 345 344 344 344 344 345 345 347 347 347 348 348 349 349 349 350 348 347 347 350 346 344 346 345 344 343 348 346 344 346 346 344 343 342 341 342 343 343 345 345 342 345 346 346 348 348 347 346 343 343 343 344 344 344
334 333 335 338 341 338 338 340 342 344 345 346 347 347 348 347 347 348 348 348 349 347 346 345 344 344 346 347 347 347 345 344 343 343 342 342 343 346 347 347 348 348 348 349 349 349 350 349 348 347 348 346 345 343 343 342 343 344 345 344 344 344 343 342 340 342 343 343 343 343 345 340 345 345 347 348 348 347 344 341 341 343 345 347 347
332 332 334 336 333 333 336 339 341 343 344 345 346 346 347 347 346 346 347 347 346 347 347 346 345 348 347 347 346 345 344 343 343 342 341 342 343 345 346 346 347 348 349 349 349 350 349 348 345 346 345 342 343 342 342 343 343 345 345 345 343 343 342 340 340 341 343 343 343 345 346 344 344 345 346 348 347 347 344 344 345 346 346 344 346
331 330 331 334 336 331 332 336 339 342 343 344 345 346 346 346 346 346 345 346 346 348 348 347 347 347 347 346 345 344 344 343 342 341 341 342 343 344 345 346 347 348 349 349 349 350 349 349 346 345 343 344 344 343 343 344 344 344 343 344 342 341 340 338 341 341 342 343 343 344 344 345 345 344 347 347 347 347 347 347 346 345 345 345 345
331 329 330 332 334 331 330 333 337 340 342 343 344 345 346 345 345 345 345 345 346 347 348 346 346 346 345 345 345 344 344 343 342 341 342 343 343 344 345 345 346 347 347 348 349 349 348 347 347 345 344 343 342 342 342 342 343 344 343 342 341 340 337 335 337 340 343 343 344 344 344 343 345 344 344 345 347 345 346 345 344 343 344 343 343
327 331 330 331 332 333 328 331 334 337 339 341 343 343 344 345 345 345 345 345 345 345 346 347 346 345 344 344 344 344 343 343 342 342 342 343 343 343 344 344 345 346 347 347 348 349 347 346 345 341 343 343 342 342 342 340 343 343 343 342 340 338 336 341 341 343 342 342 343 343 343 345 342 342 344 343 346 345 343 342 343 344 343 343 342
327 328 330 329 331 333 334 329 330 334 336 339 341 342 343 344 344 344 344 344 344 345 345 346 345 344 344 344 343 343 343 342 342 342 342 342 343 342 343 344 345 346 346 347 347 348 347 344 341 342 342 342 342 341 340 341 343 342 340 340 337 335 333 334 341 340 341 341 342 343 343 343 341 342 342 344 346 346 345 343 344 342 342 342 342
326 327 326 328 331 331 333 334 333 329 331 334 336 338 340 341 342 343 343 343 343 344 346 345 345 344 344 343 342 342 341 342 342 342 341 342 342 342 342 343 344 345 345 346 347 347 346 343 342 342 342 341 341 340 339 341 341 340 338 336 335 334 332 333 341 340 339 341 341 341 341 341 340 342 344 344 343 345 344 343 341 341 340 341 342
326 327 326 328 329 330 331 334 335 336 337 334 330 331 335 338 339 340 341 341 341 343 344 343 343 343 342 340 339 338 338 339 341 341 341 341 341 341 341 342 343 344 344 345 345 346 344 342 343 341 340 341 341 341 341 340 339 337 336 335 334 332 330 330 340 340 341 338 341 343 340 337 338 340 343 344 343 343 343 341 341 341 340 341 340
325 326 327 328 328 329 330 332 334 336 337 338 339 338 330 333 335 336 337 338 338 340 341 341 340 339 338 336 335 332 332 333 335 337 339 337 336 335 337 341 341 343 343 344 345 344 342 341 340 338 340 341 340 340 340 339 337 336 334 332 329 327 327 333 340 339 340 341 340 341 340 337 339 341 343 341 342 341 342 341 341 341 340 339 339
323 325 326 327 328 329 330 331 332 334 335 336 337 338 333 328 332 334 335 335 335 338 338 337 333 331 332 331 328 333 329 333 325 335 331 335 333 332 334 339 339 341 342 342 343 343 341 340 339 339 339 339 340 339 337 337 336 334 331 329 325 324 339 341 340 340 338 339 339 339 336 337 338 339 342 340 341 341 340 339 338 338 339 339 338
322 322 324 326 328 329 329 330 332 333 334 335 336 337 336 329 329 328 328 330 332 333 334 330 326 324 325 324 324 338 340 339 339 340 327 339 328 327 330 337 337 338 340 340 342 342 341 340 340 339 338 338 335 332 331 334 334 331 328 326 322 336 338 340 339 338 337 339 338 338 335 338 339 339 340 342 341 341 339 338 338 338 338 338 337
320 322 322 324 325 328 329 330 332 333 333 334 335 336 337 334 339 340 339 334 330 329 335 341 328 341 324 334 338 339 339 340 339 330 340 339 331 323 327 333 337 337 337 338 341 340 339 339 337 337 336 334 329 333 330 326 327 327 324 323 334 337 338 338 338 337 337 338 337 335 335 336 337 338 339 339 339 338 338 338 337 336 335 335 335
314 318 322 323 325 326 328 328 330 332 333 333 333 335 335 337 338 339 339 333 334 337 340 340 340 339 340 339 337 339 339 338 338 337 338 326 332 321 325 331 334 333 333 335 338 338 337 336 336 335 334 329 332 331 330 329 325 317 319 331 334 333 334 339 339 337 335 336 337 330 334 337 336 337 338 339 340 338 337 337 336 335 334 334 333
309 312 315 321 325 325 327 330 330 331 332 332 332 333 334 336 337 338 338 338 339 339 339 341 340 339 339 338 336 338 339 337 323 317 321 337 330 321 323 326 327 327 326 331 332 335 337 336 335 333 329 327 331 330 328 325 325 327 328 328 331 330 331 335 338 337 336 335 336 329 334 336 337 337 338 337 337 337 337 336 335 335 334 333 332
312 315 316 315 320 322 325 327 330 330 331 330 330 331 333 334 335 336 336 337 338 338 339 340 339 339 338 336 336 338 338 336 338 336 338 336 336 336 334 334 335 336 326 338 337 336 332 331 330 328 330 329 329 328 326 325 326 327 326 327 329 330 331 334 336 337 337 337 333 328 331 333 335 336 336 337 336 336 336 335 334 334 333 333 332
309 309 310 312 314 318 324 325 327 329 330 329 330 330 331 332 333 335 335 336 337 337 337 339 338 338 338 336 336 337 336 336 336 335 335 335 335 334 334 334 333 334 336 337 336 335 328 327 327 327 328 328 327 327 326 323 324 325 324 325 326 328 329 332 333 335 337 334 330 327 329 331 334 334 335 336 335 336 335 334 334 333 332 332 333
310 310 311 312 314 316 319 322 325 327 328 329 329 330 330 331 333 334 334 334 335 335 336 337 337 336 337 337 335 334 335 334 333 332 333 334 333 333 333 333 331 333 334 335 334 330 325 324 325 325 326 325 326 326 325 325 324 323 323 324 325 326 329 330 331 333 333 331 325 324 326 329 332 334 335 335 335 335 335 333 333 332 331 331 332
305 306 307 309 311 313 315 318 321 324 326 328 327 328 330 330 331 332 334 333 333 333 334 335 335 334 335 335 333 334 334 333 332 331 332 333 332 331 332 333 333 333 334 335 332 329 325 323 323 323 322 322 322 324 324 325 324 323 322 322 322 322 323 325 326 328 330 331 331 323 325 327 329 333 333 334 334 334 334 333 332 332 332 331 330
304 305 306 308 309 310 313 314 319 321 324 325 326 327 328 330 330 332 332 329 333 333 334 335 334 333 335 335 334 333 334 333 331 330 331 332 331 330 329 331 330 330 331 332 332 327 325 323 321 321 321 321 321 322 323 324 324 323 323 322 321 322 323 324 325 326 327 331 330 324 323 326 330 329 333 334 335 334 333 332 332 332 332 331 330
304 305 306 306 308 309 309 311 315 317 323 325 325 326 327 328 329 330 331 331 332 333 335 334 334 333 333 334 334 334 333 331 331 331 330 331 330 330 328 329 329 327 327 329 330 329 326 325 322 321 321 320 320 321 322 322 321 321 323 322 322 323 324 323 323 325 327 329 328 326 320 323 328 331 330 331 333 333 333 332 332 332 332 332 331
305 305 306 306 308 309 311 311 312 316 322 324 324 325 326 327 329 330 331 330 331 332 333 333 334 333 333 334 335 334 333 332 331 331 330 331 330 329 328 329 328 326 327 326 327 328 328 324 321 322 322 321 320 320 321 320 320 320 320 321 322 323 325 326 325 325 326 329 329 326 323 320 325 327 329 331 331 331 332 332 332 331 332 332 331
305 305 306 308 307 308 310 313 314 315 316 322 323 324 324 326 328 330 330 331 331 331 332 332 331 332 332 333 334 334 333 333 332 331 331 330 329 328 328 327 326 326 326 326 327 327 327 325 324 323 322 322 321 320 321 320 320 319 319 319 320 320 322 324 324 322 323 324 326 327 327 326 320 323 325 329 330 330 330 330 330 330 331 331 330
305 306 307 308 308 310 311 313 314 315 316 317 321 324 325 326 326 329 329 329 329 330 331 331 331 332 332 332 332 333 332 332 331 331 331 331 329 328 327 327 327 328 327 327 326 326 325 323 322 322 321 321 322 321 320 320 319 318 319 320 320 319 320 320 321 322 323 324 325 327 329 327 326 318 320 324 328 329 329 330 329 329 330 329 329
305 306 307 307 309 311 311 313 315 316 316 318 319 320 324 325 325 328 328 329 329 329 330 332 331 331 331 331 331 332 332 332 331 331 331 331 329 328 327 327 328 327 326 326 325 325 323 322 321 321 317 319 319 319 318 317 317 317 318 318 320 320 320 320 321 321 321 323 323 325 325 325 325 325 326 318 321 325 328 329 328 328 328 328 328
304 306 306 307 308 309 310 311 313 316 317 317 319 322 323 323 325 326 329 328 328 328 330 330 330 330 331 330 330 330 331 331 331 330 330 330 328 327 327 327 327 326 325 326 325 323 323 322 321 320 320 319 319 318 317 316 315 315 316 318 317 318 319 318 318 319 318 318 322 323 324 324 325 326 327 326 315 319 324 327 328 327 326 326 327
302 304 306 307 306 307 309 310 312 313 315 316 318 320 322 324 324 322 327 329 326 326 328 329 329 330 329 330 329 329 330 331 331 330 327 328 327 326 326 326 325 325 325 325 325 322 322 321 321 321 318 318 317 317 318 316 315 314 314 315 315 316 317 316 316 317 317 318 320 323 324 324 324 324 322 328 326 322 319 323 326 327 326 326 326
302 304 304 305 306 306 307 308 309 312 312 316 320 319 321 323 322 324 325 326 327 326 327 328 328 329 329 328 329 329 329 330 331 330 326 326 325 325 326 325 324 324 324 324 324 324 322 320 320 321 321 317 317 316 316 315 314 313 314 314 315 315 315 315 315 315 316 319 319 321 323 322 320 315 325 326 326 325 318 320 323 323 322 324 324
302 303 304 305 304 306 306 307 307 308 310 312 315 319 320 322 323 323 325 325 325 326 326 327 326 327 327 328 328 328 328 329 329 328 326 326 326 326 325 324 323 321 321 322 322 324 322 321 318 319 320 318 317 315 315 315 313 311 312 313 313 315 314 313 313 311 315 315 316 319 321 319 320 322 323 324 324 324 324 320 318 317 314 320 325
299 301 303 304 304 304 304 305 305 305 307 309 313 318 321 321 324 324 323 326 325 326 326 326 326 327 326 326 327 327 327 328 328 327 325 325 324 326 324 323 321 320 320 319 319 319 320 319 317 316 319 319 317 316 314 313 312 311 310 311 312 312 310 311 313 311 310 314 315 314 317 318 319 320 320 321 322 323 324 324 323 322 320 318 323
297 298 301 302 303 303 303 302 302 302 304 307 309 310 315 318 319 321 322 322 324 322 325 326 324 324 326 326 325 326 327 326 327 326 325 324 324 324 322 321 321 319 318 316 316 318 318 317 316 315 314 314 317 316 313 312 311 309 306 308 308 310 310 311 312 309 308 309 312 313 316 319 320 319 319 319 321 323 325 326 323 326 325 321 320
296 298 299 300 300 300 301 300 301 301 302 302 304 305 306 313 317 316 317 321 322 323 322 324 326 325 325 325 324 325 325 324 325 325 324 321 323 323 321 320 320 318 317 315 317 318 319 317 315 313 312 312 313 314 312 310 306 304 308 307 305 304 305 308 309 308 308 309 311 313 313 316 318 318 318 318 319 321 323 324 325 325 325 326 321
295 296 297 298 299 299 299 300 300 300 301 302 302 302 305 306 310 315 317 318 320 320 320 323 322 324 326 326 324 324 322 321 321 324 323 323 322 321 319 318 319 318 318 318 316 313 316 315 313 311 312 312 310 311 310 310 307 304 303 303 304 304 302 303 304 305 306 308 309 312 315 316 316 316 316 315 315 319 321 322 323 324 324 323 323
296 297 298 298 298 297 298 298 299 300 300 300 300 301 302 303 305 310 314 316 320 320 322 323 325 324 324 325 326 324 322 320 320 322 323 323 322 319 318 318 318 318 317 316 314 313 314 313 312 310 309 311 310 311 311 315 308 307 307 304 300 301 303 304 302 302 303 305 306 310 313 313 312 313 314 314 313 315 318 320 319 320 320 321 321
295 295 296 297 297 297 298 299 299 300 300 300 300 301 301 302 305 306 312 316 316 317 320 321 323 324 323 323 324 325 325 321 319 321 321 320 320 320 319 318 318 318 318 315 314 313 314 312 312 311 311 307 308 308 313 315 310 307 302 304 303 304 298 300 301 299 298 302 305 306 308 308 308 310 312 312 311 313 316 318 317 317 318 318 318
294 295 296 296 296 297 297 298 299 298 299 300 300 300 299 301 302 304 307 310 315 317 317 317 319 320 321 323 323 324 324 322 319 319 318 320 320 320 319 318 317 318 318 316 314 314 313 312 312 310 310 308 307 308 310 311 310 312 310 304 301 301 302 301 302 299 300 301 301 302 302 305 307 308 311 310 311 312 313 315 315 316 317 316 316
294 294 295 296 296 297 297 299 299 299 298 299 300 299 299 298 299 299 300 302 304 307 309 312 315 316 316 320 323 322 322 323 320 318 319 320 320 320 319 318 317 316 317 317 316 314 312 312 312 311 310 310 309 308 307 305 310 311 311 310 306 303 302 300 303 295 297 298 298 299 299 299 301 304 306 307 309 309 311 312 313 314 314 314 314
294 295 295 296 296 296 297 298 299 299 299 299 300 299 298 298 298 298 300 302 303 306 310 313 315 317 318 318 319 321 322 321 321 319 319 319 319 319 319 318 316 316 315 316 315 314 313 313 313 312 311 309 310 308 306 304 306 308 309 305 304 305 306 302 302 298 295 297 300 299 298 297 297 300 302 305 306 308 309 309 310 311 311 312 313
294 294 295 295 295 296 296 297 298 298 299 300 299 299 298 298 297 298 299 300 302 304 307 309 313 315 317 318 318 319 321 321 320 319 318 318 319 320 320 317 316 316 314 315 315 315 315 313 312 313 311 310 310 309 307 305 305 305 306 302 303 306 307 308 308 303 299 293 293 296 297 297 297 297 298 300 301 306 305 307 308 308 308 309 310
294 294 294 295 295 296 296 296 297 298 298 299 299 299 299 298 298 298 296 298 300 302 306 309 310 313 315 317 318 319 320 321 321 318 317 317 316 318 318 318 316 316 313 315 315 315 314 312 311 311 310 310 312 311 309 306 307 306 302 299 303 304 305 306 304 303 301 299 296 295 294 295 297 296 295 294 295 298 301 304 305 307 306 305 306
293 295 295 295 295 295 295 295 296 297 298 299 299 299 299 298 298 297 297 297 299 300 302 304 307 310 312 315 316 317 318 318 319 317 316 316 316 317 317 318 317 316 312 316 315 314 313 312 311 311 311 310 311 311 309 308 309 308 305 302 302 303 304 304 303 303 303 304 298 297 297 295 296 294 294 294 295 295 297 299 302 304 305 305 304
292 292 294 294 295 295 295 294 295 296 297 297 299 299 299 299 298 297 297 297 298 298 299 300 303 305 307 312 314 317 318 316 316 316 316 317 316 314 316 317 317 314 312 316 315 314 313 312 311 311 310 310 310 311 309 308 309 309 307 304 304 304 303 302 303 303 303 300 300 300 299 300 301 293 293 294 294 295 296 297 299 300 302 302 301
Wind_Speed
9 6 6 4 4 9 14 15 15 15 16 16 16 16 16 15 14 14 13 14 14 14 14 14 13 12 11 11 10 10 10 9 9 9 8 9 9 9 10 10 10 10 11 11 11 11 12 13 13 12 13 14 14 15 19 19 17 17 17 17 16 16 15 14 14 13 13 13 15 16 15 15 14 14 14 14 13 12 9 10 10 11 11 15 17
9 8 8 10 7 9 11 14 14 14 14 15 16 16 16 15 15 13 12 12 13 13 13 14 13 13 11 10 9 9 9 10 10 10 9 9 10 10 10 10 11 11 12 12 12 12 13 13 14 14 13 15 16 12 17 12 14 18 18 16 16 14 13 14 12 11 11 11 12 13 13 15 15 15 15 15 13 13 10 8 10 11 11 16 16
3 9 7 10 9 10 11 13 14 15 15 15 15 15 15 14 14 14 13 13 13 13 13 13 13 13 12 11 10 10 10 10 10 10 11 10 11 11 11 11 11 12 12 13 13 13 13 14 14 14 15 14 16 21 18 18 17 15 17 17 15 12 12 13 12 10 10 10 11 11 12 12 15 15 15 16 15 11 5 5 5 13 13 16 14
4 7 7 8 9 11 11 12 14 14 14 15 15 14 14 13 13 14 14 14 13 13 13 13 13 12 12 11 11 11 10 10 10 10 11 11 11 11 11 11 11 12 13 13 13 14 14 14 15 14 14 14 17 15 14 17 16 18 17 18 16 15 12 12 11 10 10 10 11 11 10 10 11 14 16 15 15 12 5 5 9 13 18 16 17
4 6 7 7 9 10 13 11 12 12 12 13 14 14 13 13 13 12 12 13 13 14 13 12 12 12 12 11 12 11 11 11 11 11 11 11 11 11 11 11 12 13 14 14 14 15 15 15 16 14 15 17 17 17 18 15 16 19 18 16 15 12 11 12 11 9 9 11 11 10 10 11 10 13 16 16 15 10 5 9 14 17 16 17 17
4 4 6 7 8 10 11 12 12 14 14 14 14 14 13 13 12 11 11 12 12 12 12 12 13 12 13 12 11 11 11 12 12 12 13 13 13 12 12 12 13 13 14 15 16 15 15 16 16 15 16 14 16 17 18 19 19 16 13 12 14 14 12 11 10 8 6 9 10 7 10 11 10 10 17 16 15 10 8 13 16 17 16 18 17
5 3 6 7 7 9 9 13 10 9 14 14 14 14 14 12 12 12 12 12 12 13 13 13 13 13 13 11 12 11 12 13 14 13 13 13 13 13 14 14 14 14 14 16 17 17 17 17 17 14 16 16 17 15 14 18 18 18 17 17 13 13 13 12 10 8 7 9 7 8 8 10 10 8 17 17 15 12 13 17 18 18 18 18 18
4 3 5 6 7 7 6 12 11 7 10 15 14 14 14 12 12 13 11 12 13 13 14 13 13 13 13 13 13 12 13 14 14 14 14 14 15 14 13 14 15 15 15 15 17 18 18 17 16 15 18 18 18 17 17 18 18 16 15 15 15 15 13 13 10 8 10 8 6 7 8 10 10 9 16 19 18 17 18 19 18 19 18 16 12
6 5 5 6 7 7 6 12 8 6 4 9 14 13 13 13 11 10 9 10 13 15 14 14 13 13 13 13 13 13 10 7 6 6 7 11 14 13 13 14 15 16 16 16 16 18 18 18 15 18 21 21 18 19 18 18 18 18 17 15 15 15 13 13 10 8 10 6 6 7 8 10 10 10 15 19 19 19 18 16 17 19 16 13 13
7 5 5 6 7 8 7 8 7 7 8 6 9 13 13 12 12 11 10 9 9 13 14 14 13 13 14 14 12 10 9 8 7 7 8 9 11 13 13 13 14 14 16 17 16 18 19 17 13 17 19 20 17 17 18 17 15 13 16 13 14 13 13 12 10 11 7 7 8 8 8 9 10 10 16 19 18 17 14 12 10 12 12 11 12
7 6 5 6 6 6 10 8 8 8 9 8 7 9 13 13 14 12 12 11 11 11 13 14 15 10 9 10 11 10 10 9 9 8 9 9 11 12 14 13 13 14 16 17 18 18 20 16 18 19 19 22 22 24 21 18 19 18 15 19 14 13 12 11 11 8 7 8 8 8 5 4 9 10 17 18 21 20 13 11 10 11 12 15 18
6 5 5 5 3 5 8 9 10 10 9 9 8 8 10 14 15 15 14 14 13 12 12 14 10 11 11 10 10 10 11 10 10 10 10 11 12 12 13 14 14 15 16 17 18 18 19 15 15 19 22 21 21 21 22 21 21 21 19 18 14 12 10 9 8 7 8 8 8 7 9 9 10 11 18 20 20 19 15 15 14 16 19 19 19
5 4 4 5 5 8 10 10 11 12 13 11 10 9 9 11 12 12 14 14 13 12 12 10 10 11 12 12 12 12 12 12 12 11 11 13 13 12 12 14 14 15 17 17 17 17 18 15 17 16 17 23 24 24 23 21 20 18 18 16 15 13 9 9 7 8 8 8 8 9 11 8 8 15 18 22 22 19 17 18 18 19 20 20 19
6 5 5 5 6 4 9 11 11 13 14 12 12 11 11 11 14 13 12 13 11 11 12 11 12 11 11 12 12 13 13 13 14 13 13 13 13 13 12 14 15 15 16 17 16 17 16 15 16 20 25 24 24 24 23 21 19 19 18 17 14 11 9 7 6 7 7 8 8 9 10 9 11 16 19 21 24 22 20 18 20 17 20 19 21
6 5 5 5 6 7 8 10 10 11 10 10 11 11 12 13 13 12 12 12 11 12 12 13 12 12 12 12 11 12 13 14 13 12 13 13 14 14 12 13 15 15 14 15 15 16 14 16 14 18 19 23 25 25 24 25 23 20 19 17 17 17 16 8 6 5 6 8 8 10 9 8 14 15 15 19 24 21 20 16 17 19 18 18 20
5 5 4 6 6 6 7 9 11 10 10 10 10 11 11 11 11 11 12 11 10 10 12 12 12 12 12 12 12 12 12 13 13 14 13 14 15 14 13 13 14 15 14 14 13 14 14 18 19 20 23 23 23 24 24 21 21 20 20 18 17 16 13 9 8 8 8 8 9 8 9 10 14 17 19 22 22 22 21 20 19 18 20 21 21
5 5 6 7 7 7 7 8 9 10 10 10 10 10 11 11 11 11 12 11 10 11 12 12 12 11 12 12 12 12 11 12 13 13 14 15 15 15 13 13 14 14 14 14 13 12 15 19 19 18 19 24 25 24 25 24 23 19 17 20 17 11 10 9 8 8 9 8 8 8 9 11 11 18 20 18 18 22 22 21 19 21 21 23 22
6 7 8 8 8 8 8 7 8 9 10 10 11 10 10 11 10 10 9 9 9 10 11 12 12 12 11 11 11 10 10 10 10 11 13 12 12 13 11 12 12 13 14 14 13 12 18 17 17 22 25 24 25 25 24 24 22 18 17 14 13 11 8 8 7 7 7 6 8 7 10 12 11 18 20 19 21 22 23 23 24 24 23 24 23
7 8 9 8 9 8 8 8 8 8 10 9 9 10 12 12 12 11 10 9 9 11 11 12 11 11 11 11 11 10 8 8 9 9 11 10 9 8 9 8 6 11 11 11 11 14 19 14 16 13 19 23 25 27 25 24 24 21 17 14 12 10 11 9 8 9 10 8 9 9 8 12 12 19 21 19 22 24 21 20 22 22 23 23 23
7 8 9 9 8 9 8 8 8 9 8 9 10 11 11 12 12 12 11 10 10 11 11 11 11 11 12 12 11 9 7 8 9 9 10 10 9 8 4 4 4 7 11 8 10 16 20 16 20 20 22 21 24 23 22 21 21 21 18 15 13 12 10 9 10 9 10 9 9 9 11 11 14 13 21 23 23 24 23 21 23 24 23 23 22
5 8 9 8 9 10 11 9 9 10 10 10 10 12 13 9 10 12 11 10 11 11 12 11 11 10 10 10 9 8 9 9 9 10 10 9 6 3 5 5 5 6 8 9 14 16 18 21 21 27 29 25 17 19 20 20 18 13 13 14 13 7 7 8 9 9 9 9 9 9 14 14 18 17 20 18 25 24 23 22 21 21 21 22 21
6 6 8 9 9 10 11 11 8 11 11 10 9 9 10 10 13 11 10 10 10 11 10 10 10 9 9 8 8 8 8 8 8 10 9 7 6 6 4 5 5 7 10 11 13 15 18 22 24 19 19 18 22 12 12 12 14 13 14 12 8 8 7 7 9 9 10 9 10 9 13 15 15 17 20 20 22 22 23 22 21 21 21 20 19
11 9 7 8 8 8 9 11 11 10 11 12 11 10 12 11 12 13 11 10 11 12 12 12 11 11 9 9 8 8 8 7 7 5 5 6 7 8 7 7 6 5 7 8 11 17 20 21 24 22 20 23 12 9 9 10 9 10 8 7 6 6 4 6 7 8 10 9 8 10 11 18 16 16 19 18 17 20 20 21 21 21 20 20 19
15 12 12 9 7 9 11 10 11 11 10 9 10 11 11 12 11 12 11 11 12 12 13 12 11 12 11 9 9 8 7 7 7 8 8 7 5 4 7 5 4 3 6 6 3 13 29 27 25 27 17 11 11 11 9 8 7 7 5 5 7 7 3 4 4 5 8 8 8 12 10 12 17 14 16 18 20 21 21 20 21 20 21 20 19
13 13 11 12 12 11 10 11 11 10 11 9 10 11 11 10 11 11 13 11 12 13 12 11 11 12 11 10 9 6 6 6 5 5 7 7 8 7 7 6 6 7 7 9 8 8 3 7 19 16 10 9 10 8 9 9 7 6 6 5 5 6 4 4 3 3 5 6 8 13 12 8 10 20 18 19 21 22 20 20 19 21 19 19 21
12 12 14 14 14 13 12 11 10 11 11 10 10 11 11 11 11 12 11 12 12 13 11 10 11 11 10 10 8 7 7 6 6 7 8 8 8 8 8 7 5 8 8 8 9 4 7 9 9 9 7 7 9 10 9 8 8 8 7 6 6 5 4 4 3 2 3 5 8 14 13 12 9 17 20 21 21 23 22 21 20 20 19 18 21
12 13 13 13 13 14 14 12 12 11 12 12 11 11 11 11 11 12 12 12 12 14 13 11 11 13 12 10 9 8 7 7 7 9 9 8 8 8 7 8 7 9 10 10 9 5 8 10 10 9 6 6 7 8 7 7 7 8 7 7 6 5 4 5 3 2 2 4 7 16 12 12 7 13 16 20 20 20 20 18 20 19 19 20 21
14 16 14 14 14 17 15 14 13 13 11 11 12 11 11 11 12 10 10 11 10 14 13 13 13 14 12 11 10 9 8 7 7 7 9 9 8 8 7 8 6 5 7 8 9 8 7 8 11 11 10 7 7 8 6 6 7 7 8 7 6 5 6 6 5 4 4 3 4 11 13 12 8 10 18 18 18 20 20 19 19 19 20 20 19
17 18 15 15 16 16 17 15 14 15 13 12 11 11 11 12 12 13 14 12 14 13 15 13 12 14 11 11 10 10 8 7 8 8 8 9 8 9 9 11 9 6 5 8 9 9 10 9 11 12 11 10 7 7 8 8 8 7 7 8 7 6 6 6 5 5 4 3 3 8 14 13 13 7 10 18 18 20 20 20 20 19 19 19 19
16 16 16 15 15 17 17 17 16 14 14 13 11 11 11 13 13 14 16 11 14 15 16 13 13 14 12 11 10 11 10 8 8 8 9 10 9 10 9 10 10 7 5 6 8 10 12 8 10 10 12 11 10 8 9 8 8 7 6 8 8 7 7 7 6 5 4 3 3 7 15 13 14 14 10 11 20 20 21 21 21 20 21 21 20
15 16 15 15 14 16 16 16 16 15 13 13 12 13 13 13 11 10 11 11 13 14 13 11 12 14 12 11 11 11 10 9 8 9 9 10 10 11 10 9 10 9 7 8 6 5 10 11 11 12 10 11 11 10 9 9 8 7 6 6 7 5 6 7 6 5 5 4 4 7 11 15 14 13 14 15 17 20 21 22 22 21 22 22 20
16 16 14 14 16 16 16 15 15 14 14 14 13 14 14 13 12 10 11 12 14 12 12 11 13 14 16 12 11 11 10 10 10 9 9 11 11 11 11 10 8 10 10 12 11 7 10 11 11 12 11 11 12 10 10 10 9 8 7 6 4 4 3 5 6 6 5 4 5 7 8 9 15 15 13 14 18 20 20 21 20 21 21 21 20
12 14 16 16 17 14 14 14 13 13 14 14 14 14 13 15 13 10 10 11 12 13 14 14 14 14 15 16 13 12 11 10 10 10 10 10 11 12 12 11 10 9 12 13 12 10 10 9 8 10 9 9 12 12 11 9 10 8 8 6 5 4 4 5 5 6 4 5 5 6 5 7 10 13 14 15 16 18 21 21 21 20 20 20 21
13 12 16 18 15 11 10 11 12 13 12 12 13 12 13 13 13 11 10 11 11 11 14 13 14 13 14 16 14 12 11 11 10 10 10 9 10 12 13 11 10 11 12 12 12 12 12 12 11 10 10 10 11 10 11 10 9 8 7 6 5 5 4 6 3 7 4 4 5 7 6 6 8 7 7 11 11 13 18 20 20 19 19 20 20
16 16 18 18 18 16 12 11 14 14 13 12 12 13 14 14 14 14 11 12 10 12 11 12 11 13 13 14 17 16 12 12 11 10 10 10 11 12 14 12 11 13 11 12 13 11 13 14 14 15 11 10 7 8 10 11 10 12 9 8 6 4 4 6 3 5 6 4 5 6 7 7 7 7 8 8 10 11 14 17 20 18 18 19 20
19 17 16 17 19 19 17 16 17 16 14 13 12 12 13 13 14 13 13 12 10 9 10 11 11 12 13 11 15 17 15 13 12 11 10 11 12 13 14 12 14 13 13 12 13 12 12 13 14 16 16 11 9 9 7 10 11 11 9 10 7 5 4 3 3 3 3 4 6 6 7 7 8 7 7 7 8 8 13 16 18 19 17 17 18
17 18 18 18 18 19 18 19 19 18 17 16 14 13 12 14 15 14 13 14 11 10 7 9 10 11 9 8 12 16 14 13 13 12 10 12 13 13 13 14 15 11 12 11 11 14 13 13 13 13 14 16 14 13 9 9 9 10 8 10 9 7 4 3 3 2 2 4 6 7 7 8 8 8 4 6 9 7 11 16 16 16 17 16 17
15 17 17 17 18 16 16 17 18 18 17 16 14 12 12 12 11 13 12 11 12 12 11 10 8 8 10 11 14 15 12 13 14 12 12 13 13 12 12 15 14 9 10 10 10 14 15 14 13 10 12 14 13 14 13 10 9 8 7 10 8 7 6 5 5 3 4 6 4 7 9 8 8 6 8 6 8 8 6 11 17 16 15 14 17
16 18 18 17 16 16 15 17 18 19 19 18 17 14 12 11 10 11 13 11 9 10 11 12 11 10 10 10 12 14 12 14 13 14 15 12 14 12 12 14 14 11 9 8 8 9 14 13 14 11 8 10 14 15 13 12 10 8 8 8 7 7 4 3 3 4 4 6 7 4 6 9 9 9 8 7 6 9 7 8 8 8 12 19 16
17 18 19 17 18 18 16 16 17 18 18 17 16 16 13 11 10 10 10 11 10 12 11 12 11 10 11 12 11 15 13 13 14 15 16 13 14 10 13 14 14 14 14 12 11 13 15 13 11 14 10 5 8 13 11 12 10 10 9 8 6 6 6 4 4 4 4 2 4 4 7 7 8 8 7 6 6 8 6 6 8 7 7 10 16
18 18 18 19 19 17 17 18 17 18 16 16 16 16 16 15 12 11 12 9 12 12 12 13 15 15 14 12 12 12 11 9 10 15 17 15 16 14 15 14 14 15 13 14 13 15 16 14 11 11 13 11 10 12 13 13 13 7 6 8 7 5 5 5 5 5 3 3 1 4 4 6 8 10 7 6 6 7 6 7 7 7 8 7 9
19 20 20 19 19 18 17 17 15 16 16 16 15 15 15 15 16 12 11 12 10 12 15 13 12 12 14 15 13 12 9 13 14 13 16 18 17 16 16 16 16 16 13 13 12 11 11 11 12 10 10 14 11 15 12 14 10 12 11 9 7 6 5 5 5 5 3 3 2 4 7 7 9 9 7 7 8 7 7 7 7 7 8 7 6
15 16 17 18 19 17 16 15 14 14 14 15 15 15 15 17 18 16 12 12 13 11 12 14 12 12 13 14 13 14 12 10 13 14 13 11 11 13 15 16 17 15 13 14 14 15 13 13 15 14 11 6 10 13 14 11 11 11 9 10 7 7 2 4 3 4 3 2 3 4 4 5 6 6 4 6 5 5 4 6 6 6 7 8 6
14 15 16 16 14 14 16 15 14 13 12 13 15 16 17 19 18 17 16 11 12 13 14 12 15 15 15 16 15 15 14 14 11 11 12 14 14 11 12 16 17 18 18 18 16 17 15 14 13 14 14 11 9 11 12 10 12 15 12 8 8 9 6 6 6 1 3 2 3 4 3 4 3 5 3 6 5 5 5 7 7 6 6 7 6
13 14 15 15 12 16 17 16 13 12 12 13 15 15 15 16 17 18 16 13 9 9 10 12 12 13 15 15 16 19 16 12 12 14 12 13 15 15 15 14 16 17 18 18 17 17 17 16 16 12 15 16 13 10 10 6 15 11 11 11 7 8 7 7 10 2 2 2 3 4 4 4 3 3 4 4 4 5 5 6 7 5 5 5 5
15 14 14 15 16 15 16 16 13 11 11 13 14 13 13 13 15 16 16 14 13 11 11 12 11 9 9 9 14 15 15 16 14 17 15 14 16 16 17 16 14 13 15 17 14 13 15 16 17 15 14 12 15 14 11 5 11 12 11 4 3 5 13 11 11 6 2 2 3 5 4 3 2 3 2 4 5 5 4 5 6 6 4 5 5
16 14 14 15 17 16 15 15 14 12 10 10 13 11 12 12 14 15 15 14 14 12 12 13 12 13 12 13 14 14 14 13 15 16 15 15 17 15 16 15 14 14 15 16 14 16 16 19 16 15 14 12 13 15 15 11 8 7 8 3 4 5 9 14 11 9 8 2 3 3 2 3 3 3 4 2 3 5 3 4 5 5 5 5 5
16 14 14 15 17 18 17 15 14 14 11 11 11 10 10 11 13 14 14 15 15 16 16 15 14 12 14 15 14 15 17 16 15 14 15 14 11 11 16 15 15 17 14 14 16 17 14 13 15 17 13 12 15 10 14 13 15 9 6 6 6 7 12 9 5 11 11 10 4 3 3 3 2 2 1 2 2 3 4 3 4 5 4 4 4
15 13 14 14 15 16 17 16 16 16 14 13 12 11 10 10 10 10 12 12 14 14 14 13 13 13 14 13 11 13 16 18 14 15 15 15 15 15 15 14 14 15 12 16 18 19 17 16 16 14 14 13 12 12 12 13 12 12 9 4 6 8 10 9 8 5 7 9 7 9 6 1 2 0 1 1 1 2 2 2 2 4 4 4 3
18 14 15 14 14 15 17 18 18 15 16 15 12 13 12 10 10 11 12 11 11 14 15 16 14 14 14 16 15 14 12 11 13 14 13 14 16 14 17 19 18 18 15 19 17 18 14 16 17 16 16 16 11 13 15 12 12 11 12 8 8 7 8 8 8 10 7 12 12 12 11 11 9 4 2 2 2 2 2 1 2 3 4 4 3
21 21 18 15 15 15 17 18 19 16 17 18 14 13 12 11 10 10 11 12 13 13 14 16 16 16 15 15 14 13 12 9 12 12 16 16 15 16 16 15 17 15 17 16 20 18 14 15 16 16 16 16 12 13 12 12 12 12 14 12 13 13 12 11 9 9 10 8 7 9 8 8 8 6 3 2 2 2 2 2 3 3 4 4 4
Wind_Direction
213 202 200 184 254 216 205 206 206 206 201 200 204 203 205 206 207 210 208 205 204 205 204 200 197 192 189 192 197 195 198 198 197 196 203 212 215 221 230 238 242 243 244 241 239 234 232 237 237 234 210 200 186 192 200 200 187 156 156 161 161 153 149 146 147 154 151 144 136 134 134 131 126 125 126 123 117 118 118 120 133 128 121 122 125
174 192 187 190 212 213 211 210 210 210 210 205 205 206 207 207 206 208 210 209 206 207 206 204 200 201 193 197 203 207 208 215 216 217 216 221 222 224 230 237 243 244 245 245 241 238 233 235 237 234 200 207 191 189 200 195 189 164 158 163 157 154 151 142 148 150 151 146 139 137 135 134 131 131 132 130 126 128 136 151 144 128 121 122 121
156 182 187 188 188 208 215 211 210 212 214 213 214 211 211 211 210 208 209 210 212 210 211 211 209 205 197 206 218 225 230 229 229 229 232 226 229 231 236 239 243 247 246 246 243 240 236 234 235 230 205 201 208 180 193 190 175 160 162 166 155 151 145 139 148 153 152 145 138 135 130 130 132 134 136 137 135 136 141 154 139 121 125 126 124
193 188 192 179 189 209 215 217 211 209 211 215 217 218 217 214 216 215 208 208 212 212 212 215 215 215 218 219 224 228 232 233 233 232 230 231 230 231 234 242 247 249 250 248 245 243 239 234 233 228 195 197 215 189 189 182 178 169 176 163 156 149 147 142 148 157 151 140 139 142 138 137 136 138 140 142 141 140 130 128 122 123 129 131 124
213 194 198 193 200 209 218 222 216 213 214 214 219 222 222 221 221 215 213 212 211 216 218 219 220 222 228 228 234 232 233 237 231 228 231 227 226 230 229 233 246 252 253 250 248 244 239 235 232 225 190 189 204 179 187 187 185 187 165 156 145 138 138 144 147 153 151 149 153 166 144 142 143 143 144 146 143 139 134 123 125 132 130 130 128
204 203 201 200 201 207 213 223 224 214 214 215 219 223 224 227 222 217 215 217 215 215 217 220 223 223 225 229 232 233 231 228 225 225 226 225 219 220 223 229 236 244 251 251 249 246 240 236 231 227 190 178 191 184 191 180 184 159 136 135 138 130 135 141 140 141 145 155 187 172 148 146 146 150 150 146 143 143 142 134 134 132 133 132 130
202 204 206 201 201 210 194 220 222 228 218 216 219 224 224 226 228 225 221 217 217 217 217 219 223 226 230 229 230 229 226 225 224 223 227 227 227 223 221 222 229 237 243 249 249 245 243 236 231 222 185 181 181 179 179 176 177 145 146 146 136 130 134 137 136 141 152 167 173 159 154 155 148 152 156 150 146 149 149 143 140 138 137 135 134
205 210 207 207 209 187 184 213 223 235 235 222 223 224 226 226 231 230 224 224 218 214 216 221 224 227 229 230 230 223 224 225 225 226 225 221 224 224 229 228 230 234 237 243 247 245 243 237 231 204 179 187 179 172 175 178 169 141 143 139 135 133 129 135 132 155 181 179 171 167 161 157 157 157 163 154 151 151 150 145 142 140 138 135 126
211 210 214 216 213 204 188 215 224 230 250 246 230 230 228 230 232 227 223 223 224 222 221 224 225 225 228 230 228 220 221 231 235 246 260 250 232 231 226 231 235 237 238 239 241 242 243 237 215 187 182 179 176 176 173 182 164 152 147 147 138 140 130 135 144 170 199 175 171 170 165 166 161 160 164 158 155 151 146 143 140 139 132 126 135
207 206 215 217 225 181 215 219 226 232 234 238 241 235 235 238 240 236 235 228 227 225 223 222 224 222 226 230 220 196 208 222 235 247 258 273 276 247 240 232 233 241 242 240 237 239 241 236 215 193 170 172 173 170 171 167 149 148 152 140 145 128 127 141 157 188 181 173 177 171 172 169 167 164 163 157 149 139 142 133 137 134 130 136 126
204 201 209 227 229 204 217 221 227 235 239 237 240 236 231 234 235 239 248 242 234 231 228 225 228 218 203 196 191 202 205 213 225 234 241 256 261 259 249 244 237 233 235 239 238 235 239 229 201 192 177 174 176 169 167 154 160 160 154 145 149 130 136 148 177 175 178 170 170 174 125 282 169 167 161 150 144 142 142 131 133 120 129 127 129
216 206 209 219 222 228 228 230 228 231 240 243 241 239 232 230 234 237 241 251 246 241 238 235 210 176 185 185 190 200 208 212 216 224 236 245 246 252 260 255 248 241 232 229 234 236 238 223 201 192 169 183 178 169 157 166 159 153 148 135 132 131 138 165 183 170 167 170 169 161 164 182 167 146 152 146 145 142 139 133 135 135 132 133 130
234 220 217 219 219 211 225 228 230 229 231 236 238 240 235 230 236 241 241 248 252 250 244 228 189 180 184 190 194 200 207 210 215 225 236 238 239 244 255 259 253 243 234 226 226 233 235 205 201 190 187 179 172 166 161 158 153 151 141 117 120 133 153 198 188 174 164 163 164 175 164 169 145 139 152 153 147 144 142 138 140 137 134 132 131
260 232 229 229 226 185 215 225 229 226 228 231 234 238 236 231 235 236 239 247 255 254 244 216 202 184 188 194 198 203 208 212 217 220 230 235 238 243 251 255 253 245 234 225 223 229 227 205 192 188 186 178 167 163 161 148 152 147 135 136 136 149 159 217 185 169 164 163 167 169 165 150 148 152 156 156 145 144 135 134 133 137 131 133 130
261 249 243 242 240 229 209 227 230 230 232 235 237 237 236 235 235 238 240 247 254 253 238 215 194 191 194 198 204 210 215 216 219 221 226 234 238 243 250 257 253 245 238 228 223 226 219 193 207 194 188 175 167 160 153 160 157 149 146 149 151 165 168 174 161 169 161 163 160 163 157 152 132 147 154 158 138 131 129 142 135 131 121 126 121
255 267 253 251 250 245 230 216 225 231 229 231 237 240 233 230 234 240 243 249 257 252 218 197 197 197 196 199 205 210 216 218 218 222 227 233 239 245 256 262 257 247 243 235 224 223 205 179 201 201 177 171 164 157 154 160 153 148 146 153 157 161 174 165 167 166 160 158 156 147 138 132 138 149 157 150 136 134 128 133 124 126 134 131 126
252 252 254 250 249 251 241 236 222 214 229 234 235 239 240 232 232 234 240 245 256 252 211 193 193 193 198 199 206 210 217 225 226 227 228 232 236 245 254 265 260 245 244 237 222 211 191 184 200 186 171 167 161 158 160 163 156 143 145 148 154 159 154 156 155 163 155 147 147 137 135 142 152 156 147 138 147 134 134 128 131 137 138 128 122
247 242 242 243 243 246 252 247 236 223 226 218 229 241 245 238 233 231 231 238 251 249 218 197 195 194 195 199 205 208 216 223 226 225 229 231 236 241 253 264 256 245 241 233 222 198 181 188 188 181 181 167 165 161 164 159 144 150 152 140 143 144 131 150 148 147 132 141 139 135 137 138 165 155 138 139 142 135 134 136 138 134 131 123 123
263 250 245 243 239 238 244 248 246 239 228 229 225 216 225 237 234 229 225 231 245 241 215 203 198 194 194 197 202 209 213 228 223 221 219 224 231 246 267 260 252 239 230 226 218 184 177 187 165 177 186 177 167 169 162 154 145 155 141 135 140 131 126 133 137 149 144 150 145 138 119 123 142 140 137 144 142 136 128 135 136 129 123 122 120
263 258 255 246 241 236 232 236 238 236 235 233 231 233 212 219 230 228 224 222 234 232 214 203 201 199 199 198 202 203 208 220 224 224 215 221 226 246 217 212 239 224 214 202 193 173 180 181 167 170 164 171 168 158 151 137 148 143 134 137 134 133 145 139 142 149 154 142 138 130 128 135 139 153 143 148 139 130 132 137 138 128 122 122 124
249 254 252 255 246 241 233 231 230 231 234 235 237 234 237 204 226 231 228 222 228 225 215 203 203 209 206 203 202 215 221 221 203 222 203 217 206 170 172 188 217 232 208 211 200 180 181 184 177 177 170 160 146 131 129 134 139 132 112 133 137 135 133 130 138 149 150 139 129 129 140 151 147 154 140 140 135 134 135 134 133 125 123 122 119
280 268 251 249 252 247 243 236 232 225 229 231 233 234 235 226 235 228 222 221 224 222 212 214 205 216 204 208 211 217 225 222 219 213 214 187 138 143 176 175 190 208 206 205 197 182 168 163 148 145 138 130 123 119 117 113 121 123 130 134 131 125 123 124 142 146 149 146 134 122 132 131 152 157 148 149 137 135 133 129 130 131 129 122 124
313 297 281 256 254 265 259 248 240 233 225 230 231 231 229 228 227 230 228 216 221 215 223 212 220 219 209 212 215 221 219 223 224 199 220 124 139 158 167 168 175 197 214 211 204 175 167 154 151 143 135 129 120 126 128 133 125 117 115 109 94 91 91 115 121 143 150 142 128 111 125 149 154 156 149 143 137 134 133 134 130 131 134 131 134
330 329 317 304 273 261 265 259 252 245 235 231 234 234 233 227 225 225 224 223 220 218 220 217 216 220 221 220 225 217 212 224 95 104 115 159 133 169 167 146 150 136 131 159 150 199 173 165 147 137 133 132 136 138 132 132 136 133 122 108 102 98 84 116 117 146 144 130 128 122 112 133 145 147 153 152 139 130 131 134 133 136 138 135 135
327 318 312 309 297 277 268 265 261 255 246 244 237 237 233 233 230 224 223 221 221 219 218 215 214 220 221 223 224 208 207 218 194 178 203 196 190 184 166 159 166 169 179 158 133 104 27 117 131 128 133 139 127 123 135 138 134 123 114 108 96 105 118 94 92 117 131 113 121 126 123 120 164 158 155 146 139 136 137 136 134 134 141 143 128
338 331 327 320 315 303 285 272 264 256 250 247 245 243 235 234 232 227 223 219 221 220 218 213 211 213 216 219 213 205 205 205 200 204 209 193 191 196 186 170 173 181 185 155 144 111 92 87 85 97 111 129 129 134 134 133 128 127 122 112 111 103 102 94 103 109 112 106 128 130 137 146 187 163 158 149 144 141 141 138 134 136 137 141 127
343 339 331 327 320 311 299 285 271 260 253 248 253 251 241 233 235 231 221 218 219 221 219 218 217 218 214 207 210 208 205 202 199 207 207 197 190 186 187 174 177 191 186 170 150 114 122 129 127 127 120 120 126 135 129 126 119 116 112 113 113 107 111 109 110 107 70 91 122 138 140 151 185 169 159 151 148 140 139 141 137 141 141 142 138
355 350 346 338 330 321 312 294 277 268 258 249 244 247 247 240 235 234 227 218 211 216 221 220 220 220 211 210 206 213 205 193 189 196 202 199 184 178 180 184 178 198 198 172 159 138 132 137 131 130 124 123 132 133 119 111 115 119 123 121 119 118 122 126 128 111 97 92 106 140 146 154 176 177 164 154 153 144 143 145 144 145 143 146 146
357 354 348 346 340 332 321 306 291 281 270 263 254 245 245 242 240 233 225 216 214 213 217 217 218 219 206 207 199 210 206 194 191 195 194 194 181 177 170 186 178 179 192 173 157 145 144 139 136 136 138 134 131 129 127 127 124 127 131 129 135 142 140 134 135 135 118 102 112 146 152 154 153 173 163 149 148 144 144 143 141 146 145 144 143
353 351 353 351 343 338 333 318 303 293 283 270 259 254 246 242 240 238 236 225 221 216 216 218 217 217 210 201 200 207 207 198 191 196 193 191 186 176 173 187 190 169 162 162 158 155 145 140 137 135 140 139 137 143 133 131 125 127 130 141 150 153 150 141 140 140 122 122 131 144 157 149 151 160 158 159 149 149 147 141 142 150 146 147 147
349 350 351 348 343 341 337 330 316 301 287 275 267 258 255 249 241 239 241 232 227 221 219 217 218 215 210 198 199 203 206 198 193 194 194 190 188 178 173 184 186 172 165 156 146 155 144 151 145 144 144 143 143 145 137 134 128 126 135 145 143 145 143 140 137 131 131 133 104 132 146 143 139 140 157 167 157 151 147 144 149 151 149 147 147
350 349 347 343 347 346 339 335 332 318 303 286 275 265 260 256 249 242 237 234 226 223 218 214 213 216 216 209 196 201 199 194 189 191 198 189 188 184 177 181 178 173 164 159 158 165 155 154 142 146 144 143 144 140 138 137 136 138 137 120 129 131 122 130 134 141 138 134 129 131 134 140 145 148 155 155 160 147 143 142 146 147 145 144 144
343 342 343 342 345 342 340 334 334 328 313 302 288 278 268 260 255 243 240 235 230 224 225 215 212 212 215 211 203 196 195 195 186 191 197 185 178 182 179 178 177 181 169 161 155 151 142 137 132 139 140 135 144 142 140 138 133 138 136 138 130 106 89 130 131 133 152 131 139 137 120 138 147 154 158 164 163 151 144 140 140 146 146 146 144
343 341 342 344 342 342 341 333 330 327 323 308 298 290 279 268 263 254 243 239 232 227 228 224 216 213 212 212 205 195 195 195 185 191 197 188 179 181 181 178 178 175 172 164 157 155 150 148 150 146 147 147 148 139 141 141 138 134 136 137 130 132 124 136 154 141 149 120 139 137 133 129 138 143 148 155 152 149 143 142 144 147 150 151 150
346 345 346 342 340 343 342 339 338 330 321 315 303 289 282 276 266 259 248 244 234 228 227 234 224 215 210 212 209 205 198 193 185 186 196 198 182 187 184 179 175 173 172 170 165 160 157 157 157 154 151 154 149 142 139 143 143 140 144 137 128 122 117 140 202 124 129 127 128 133 135 135 136 138 141 135 146 149 143 141 143 149 156 154 154
346 344 343 342 343 345 341 341 340 337 328 319 307 297 289 277 266 259 254 248 242 231 227 229 230 221 214 211 208 206 201 191 183 182 189 206 197 192 187 175 172 175 175 167 169 163 161 158 162 159 153 151 147 145 134 139 144 142 147 140 137 139 133 136 130 117 131 141 121 134 133 134 138 143 135 140 153 152 146 144 146 148 152 155 157
343 345 345 344 343 344 342 341 339 337 334 323 315 308 297 287 280 263 249 249 235 239 230 232 224 222 212 210 206 206 198 188 184 178 185 203 206 202 193 177 176 171 166 163 168 171 167 161 164 167 159 153 156 147 146 138 138 141 147 139 144 138 130 139 134 122 114 111 142 143 135 133 129 130 115 141 149 144 146 141 144 145 147 152 159
341 345 346 346 344 342 341 340 338 339 334 330 320 313 308 298 284 272 253 244 250 238 225 231 234 225 217 212 212 208 198 192 187 181 190 200 201 202 192 179 174 166 163 164 166 172 172 168 164 167 158 157 152 150 146 139 137 137 138 131 116 132 136 135 119 111 126 140 162 163 146 136 139 121 125 123 140 133 120 139 140 139 138 147 154
344 342 344 347 343 345 343 343 342 341 338 331 327 316 310 303 290 275 259 242 237 243 242 228 215 217 220 216 218 213 206 193 186 185 195 193 198 197 187 182 175 167 167 167 157 159 164 167 162 161 160 163 158 152 146 139 136 135 132 122 122 109 75 79 95 109 118 163 159 153 136 143 139 136 131 129 144 138 125 131 135 142 146 155 157
350 344 344 346 345 344 346 346 344 342 339 337 335 330 320 317 311 299 279 260 242 239 233 228 225 222 218 212 203 212 210 198 183 190 193 189 193 178 183 179 177 170 167 169 168 171 166 157 154 155 151 161 161 146 134 131 124 124 114 108 96 111 120 118 111 125 133 112 133 159 148 150 135 137 127 131 125 120 123 125 128 124 122 141 151
351 348 346 346 346 346 343 346 345 344 341 341 340 336 330 322 314 309 301 280 254 246 236 232 228 218 207 212 214 210 212 199 193 193 193 189 190 182 177 178 177 176 175 173 172 169 167 162 155 155 155 154 149 143 141 130 121 105 114 111 87 54 67 96 88 75 106 113 93 157 135 152 136 141 133 128 123 121 120 121 124 124 125 129 103
349 348 350 345 343 344 343 340 343 344 340 339 338 332 328 324 317 304 298 293 282 259 249 232 229 227 215 202 199 209 195 193 196 191 199 190 188 179 174 175 179 179 176 165 160 158 160 157 154 155 165 158 149 154 153 136 143 149 142 130 103 82 58 65 72 90 66 101 129 146 158 164 149 142 129 111 113 127 124 125 128 125 125 120 113
337 338 342 340 341 341 342 340 338 339 341 339 337 332 326 322 316 306 299 297 290 274 267 259 233 217 221 223 204 197 192 197 200 194 194 184 175 169 175 176 177 176 170 168 163 165 166 164 165 161 160 177 151 162 167 168 139 142 131 119 149 136 129 84 40 47 47 67 97 119 141 143 141 133 124 120 120 121 114 122 122 120 122 122 122
334 336 338 337 334 333 331 333 334 336 336 339 333 330 324 317 313 310 305 293 288 290 277 263 249 232 228 224 226 219 197 188 188 196 198 184 174 175 174 176 178 178 177 172 171 170 166 164 171 170 160 155 158 171 178 163 144 147 161 173 156 146 141 191 147 29 19 18 90 103 83 121 121 135 106 127 130 129 132 130 125 127 122 124 126
325 329 333 332 329 326 327 325 325 331 331 335 336 333 329 326 324 320 318 313 294 282 287 277 256 242 228 222 224 222 215 192 176 190 195 187 185 180 181 179 178 180 179 176 174 171 170 167 169 170 173 163 157 159 185 184 167 170 136 135 149 182 185 135 131 51 39 78 56 81 66 73 111 132 135 102 107 127 134 131 130 128 127 123 122
322 326 326 323 322 318 318 319 320 320 326 329 333 334 330 326 325 324 323 322 314 309 296 286 273 252 247 235 227 223 215 205 184 190 193 185 191 186 181 178 173 179 182 176 173 168 164 166 174 173 176 178 154 160 169 233 188 175 167 159 42 147 154 161 153 161 4 47 61 56 56 32 27 52 68 109 124 129 138 136 135 133 125 127 129
321 318 318 317 318 317 314 317 315 314 315 320 328 330 331 329 324 319 313 311 312 304 299 294 284 274 250 224 220 218 222 207 199 193 194 187 184 181 183 175 170 174 179 179 174 175 175 177 170 168 174 166 164 166 170 170 183 202 168 126 100 74 132 154 170 111 153 171 90 78 51 35 28 79 109 98 114 134 126 126 124 121 126 134 136
316 312 312 313 314 317 316 313 313 311 309 312 320 322 323 324 322 320 321 320 318 311 308 300 294 277 261 243 230 221 212 212 210 194 188 187 184 180 184 177 169 176 173 181 181 179 176 175 174 172 165 168 173 168 166 169 176 180 143 120 112 128 150 166 153 163 152 145 152 45 60 49 54 39 21 76 115 119 129 128 129 133 140 140 135
314 307 305 305 305 308 311 311 308 309 310 309 310 316 314 316 316 318 321 316 316 314 310 304 297 283 263 255 235 223 216 208 203 199 191 180 180 178 187 186 175 173 165 182 186 181 175 173 176 173 170 173 176 169 164 177 175 167 151 128 140 148 160 170 143 126 153 152 150 159 150 84 70 45 56 65 42 36 84 124 133 138 138 137 137
320 307 301 300 299 302 305 307 305 304 305 302 300 304 309 309 313 316 313 312 319 320 321 316 310 300 276 256 243 227 218 208 204 192 194 183 179 179 186 190 181 177 169 184 177 179 177 179 180 178 172 171 173 174 178 176 180 165 167 151 150 149 155 167 173 160 163 173 162 176 166 166 174 178 115 132 111 103 115 117 152 153 146 149 158
318 314 308 298 297 296 299 301 299 297 298 301 295 291 298 299 305 311 310 314 319 320 320 319 320 317 303 276 253 230 215 209 202 197 193 191 179 180 185 185 187 176 175 172 182 179 175 181 182 174 173 172 174 177 170 180 183 174 175 176 177 173 171 171 164 169 158 163 149 164 153 171 159 133 158 100 118 121 130 150 170 169 161 155 162